• In Czech Republic
  • List of Countries
  • For 7 days
  • Water Temperature
  • Satellite Maps
  • Weather Map
  • Weather Widgets
  • user-avatar
    Login

    Hourly Weather Bakans

    Today, 20 February, Tuesday

    Time Temperature Precipitation Wind Pressure Humidity
    00:00 -10°C° 0 mm 5 mps 747 mmHg 87%
    01:00 -8°C° 0 mm 5 mps 747 mmHg 87%
    02:00 -8°C° 0 mm 5 mps 746 mmHg 89%
    03:00 -7°C° 0 mm 5 mps 746 mmHg 89%
    04:00 -6°C° 0 mm 5 mps 746 mmHg 90%
    05:00 -5°C° 0 mm 5 mps 745 mmHg 90%
    06:00 -5°C° 0 mm 5 mps 746 mmHg 90%
    07:00 -4°C° 0 mm 4 mps 746 mmHg 90%
    08:00 -2°C° 0 mm 3 mps 746 mmHg 91%
    09:00 -2°C° 0 mm 3 mps 746 mmHg 90%
    10:00 -1°C° 0 mm 3 mps 746 mmHg 89%
    11:00 -1°C° 0 mm 3 mps 747 mmHg 89%
    12:00 -1°C° 0 mm 3 mps 747 mmHg 88%
    13:00 -1°C° 0 mm 3 mps 747 mmHg 88%
    14:00 -1°C° 0 mm 3 mps 748 mmHg 87%
    15:00 -4°C° 0 mm 3 mps 748 mmHg 88%
    16:00 -5°C° 0 mm 3 mps 748 mmHg 89%
    17:00 -7°C° 0 mm 3 mps 749 mmHg 90%
    18:00 -9°C° 0 mm 3 mps 749 mmHg 91%
    19:00 -13°C° 0 mm 3 mps 750 mmHg 91%
    20:00 -15°C° 0 mm 3 mps 750 mmHg 92%
    21:00 -16°C° 0 mm 3 mps 750 mmHg 91%
    22:00 -16°C° 0 mm 2 mps 750 mmHg 90%
    23:00 -18°C° 0 mm 2 mps 751 mmHg 90%

    Tomorrow, 21 February, Wednesday

    Time Temperature Precipitation Wind Pressure Humidity
    00:00 -18°C° 0 mm 2 mps 751 mmHg 89%
    01:00 -18°C° 0 mm 2 mps 751 mmHg 88%
    02:00 -17°C° 0 mm 2 mps 751 mmHg 87%
    03:00 -17°C° 0 mm 2 mps 751 mmHg 86%
    04:00 -15°C° 0 mm 1 mps 750 mmHg 86%
    05:00 -15°C° 0 mm 1 mps 750 mmHg 85%
    06:00 -14°C° 0 mm 1 mps 750 mmHg 84%
    07:00 -15°C° 0 mm 2 mps 749 mmHg 84%
    08:00 -15°C° 0 mm 2 mps 749 mmHg 83%
    09:00 -14°C° 0.1 mm 3 mps 748 mmHg 84%
    10:00 -12°C° 0.1 mm 4 mps 746 mmHg 85%
    11:00 -12°C° 0.1 mm 5 mps 745 mmHg 85%
    12:00 -10°C° 0.3 mm 5 mps 744 mmHg 87%
    13:00 -8°C° 0.3 mm 6 mps 742 mmHg 89%
    14:00 -6°C° 0.3 mm 6 mps 741 mmHg 90%
    15:00 -6°C° 1 mm 7 mps 739 mmHg 91%
    16:00 -4°C° 1 mm 7 mps 737 mmHg 91%
    17:00 -3°C° 1 mm 7 mps 735 mmHg 91%
    18:00 -2°C° 0.3 mm 7 mps 734 mmHg 93%
    19:00 -1°C° 0.3 mm 7 mps 732 mmHg 95%
    20:00 +1°C° 0.3 mm 6 mps 730 mmHg 97%
    21:00 0°C° 0.6 mm 7 mps 730 mmHg 97%
    22:00 0°C° 0.6 mm 7 mps 729 mmHg 97%
    23:00 0°C° 0.6 mm 7 mps 729 mmHg 96%

    Day after tomorrow, 22 February, Thursday

    Time Temperature Precipitation Wind Pressure Humidity
    00:00 -1°C° 0.1 mm 8 mps 729 mmHg 90%
    01:00 -3°C° 0.1 mm 9 mps 730 mmHg 85%
    02:00 -5°C° 0.1 mm 10 mps 730 mmHg 79%
    03:00 -7°C° 0 mm 10 mps 731 mmHg 77%
    04:00 -9°C° 0 mm 10 mps 732 mmHg 75%
    05:00 -10°C° 0 mm 10 mps 733 mmHg 73%
    06:00 -12°C° 0 mm 10 mps 735 mmHg 74%
    07:00 -14°C° 0 mm 9 mps 737 mmHg 75%
    08:00 -15°C° 0 mm 9 mps 738 mmHg 76%
    09:00 -15°C° 0 mm 9 mps 740 mmHg 76%
    10:00 -13°C° 0 mm 8 mps 741 mmHg 76%
    11:00 -13°C° 0 mm 8 mps 742 mmHg 76%
    12:00 -13°C° 0 mm 8 mps 742 mmHg 77%
    13:00 -13°C° 0 mm 7 mps 743 mmHg 77%
    14:00 -14°C° 0 mm 7 mps 743 mmHg 77%
    15:00 -14°C° 0 mm 6 mps 743 mmHg 79%
    16:00 -15°C° 0 mm 6 mps 744 mmHg 80%
    17:00 -15°C° 0 mm 5 mps 744 mmHg 82%
    18:00 -15°C° 0 mm 5 mps 744 mmHg 83%
    19:00 -17°C° 0 mm 5 mps 745 mmHg 84%
    20:00 -18°C° 0 mm 5 mps 745 mmHg 85%
    21:00 -17°C° 0 mm 5 mps 745 mmHg 85%
    22:00 -17°C° 0 mm 5 mps 746 mmHg 85%
    23:00 -17°C° 0 mm 5 mps 746 mmHg 85%

    23 February, Friday

    Time Temperature Precipitation Wind Pressure Humidity
    00:00 -18°C° 0 mm 5 mps 746 mmHg 84%
    01:00 -18°C° 0 mm 6 mps 746 mmHg 83%
    02:00 -20°C° 0 mm 6 mps 746 mmHg 82%
    03:00 -20°C° 0 mm 6 mps 747 mmHg 82%
    04:00 -20°C° 0 mm 5 mps 747 mmHg 83%
    05:00 -21°C° 0 mm 5 mps 747 mmHg 84%
    06:00 -21°C° 0 mm 5 mps 748 mmHg 83%
    07:00 -21°C° 0 mm 5 mps 748 mmHg 83%
    08:00 -21°C° 0 mm 5 mps 748 mmHg 82%
    09:00 -20°C° 0 mm 6 mps 748 mmHg 80%
    10:00 -18°C° 0 mm 6 mps 748 mmHg 77%
    11:00 -18°C° 0 mm 7 mps 748 mmHg 74%
    12:00 -18°C° 0 mm 7 mps 748 mmHg 74%
    13:00 -17°C° 0 mm 7 mps 747 mmHg 74%
    14:00 -17°C° 0 mm 7 mps 747 mmHg 73%
    15:00 -16°C° 0 mm 6 mps 747 mmHg 76%
    16:00 -16°C° 0 mm 6 mps 746 mmHg 78%
    17:00 -15°C° 0 mm 5 mps 746 mmHg 80%
    18:00 -17°C° 0 mm 5 mps 746 mmHg 82%
    19:00 -17°C° 0 mm 5 mps 746 mmHg 84%
    20:00 -17°C° 0 mm 5 mps 745 mmHg 86%
    21:00 -17°C° 0 mm 5 mps 745 mmHg 86%
    22:00 -15°C° 0 mm 5 mps 744 mmHg 86%
    23:00 -15°C° 0 mm 5 mps 744 mmHg 86%

    24 February, Saturday

    Time Temperature Precipitation Wind Pressure Humidity
    00:00 -15°C° 0 mm 5 mps 743 mmHg 87%
    01:00 -14°C° 0 mm 5 mps 743 mmHg 87%
    02:00 -14°C° 0 mm 4 mps 742 mmHg 87%
    03:00 -14°C° 0 mm 4 mps 741 mmHg 87%
    04:00 -14°C° 0 mm 4 mps 741 mmHg 88%
    05:00 -12°C° 0 mm 4 mps 740 mmHg 88%
    06:00 -13°C° 0 mm 5 mps 740 mmHg 87%
    07:00 -12°C° 0 mm 5 mps 739 mmHg 87%
    08:00 -12°C° 0 mm 5 mps 739 mmHg 86%
    09:00 -11°C° 0 mm 6 mps 738 mmHg 84%
    10:00 -10°C° 0 mm 6 mps 737 mmHg 83%
    11:00 -9°C° 0 mm 6 mps 737 mmHg 82%
    12:00 -8°C° 0.1 mm 6 mps 736 mmHg 83%
    13:00 -6°C° 0.1 mm 6 mps 735 mmHg 84%
    14:00 -6°C° 0.1 mm 6 mps 734 mmHg 85%
    15:00 -6°C° 0.2 mm 5 mps 734 mmHg 86%
    16:00 -5°C° 0.2 mm 4 mps 733 mmHg 88%
    17:00 -5°C° 0.2 mm 3 mps 733 mmHg 89%
    18:00 -6°C° 0 mm 3 mps 733 mmHg 91%
    19:00 -6°C° 0 mm 3 mps 733 mmHg 92%
    20:00 -7°C° 0 mm 3 mps 733 mmHg 94%
    21:00 -7°C° 0 mm 3 mps 734 mmHg 93%
    22:00 -8°C° 0 mm 3 mps 734 mmHg 92%
    23:00 -8°C° 0 mm 3 mps 735 mmHg 91%

    25 February, Sunday

    Time Temperature Precipitation Wind Pressure Humidity
    00:00 -9°C° 0 mm 3 mps 735 mmHg 91%
    01:00 -10°C° 0 mm 4 mps 736 mmHg 91%
    02:00 -11°C° 0 mm 4 mps 737 mmHg 91%
    03:00 -14°C° 0 mm 4 mps 738 mmHg 90%
    04:00 -14°C° 0 mm 3 mps 739 mmHg 90%
    05:00 -16°C° 0 mm 3 mps 740 mmHg 90%
    06:00 -16°C° 0 mm 3 mps 741 mmHg 88%
    07:00 -17°C° 0 mm 3 mps 742 mmHg 87%
    08:00 -17°C° 0 mm 3 mps 743 mmHg 86%
    09:00 -16°C° 0 mm 3 mps 744 mmHg 81%
    10:00 -16°C° 0 mm 4 mps 744 mmHg 76%
    11:00 -15°C° 0 mm 4 mps 745 mmHg 70%
    12:00 -14°C° 0 mm 4 mps 745 mmHg 69%
    13:00 -13°C° 0 mm 3 mps 746 mmHg 68%
    14:00 -12°C° 0 mm 3 mps 746 mmHg 66%
    15:00 -13°C° 0 mm 3 mps 746 mmHg 70%
    16:00 -13°C° 0 mm 2 mps 746 mmHg 74%
    17:00 -14°C° 0 mm 2 mps 746 mmHg 78%
    18:00 -15°C° 0 mm 2 mps 747 mmHg 82%
    19:00 -14°C° 0 mm 1 mps 747 mmHg 86%
    20:00 -15°C° 0 mm 1 mps 747 mmHg 90%
    21:00 -16°C° 0 mm 1 mps 747 mmHg 91%
    22:00 -16°C° 0 mm 1 mps 746 mmHg 92%
    23:00 -19°C° 0 mm 2 mps 746 mmHg 92%
    Show more